Chrysopouli, Greece

3:16 AM EEST on April 21, 2018 (GMT +0300)
Megas Alexandros

Weather History for LGKV - March, 2013

Change the Weather History Date:

Tuesday, March 26, 2013

  Actual Average Record
Temperature  
Mean Temperature 56 °F -  
Max Temperature 62 °F 54 °F 71 °F (2001)
Min Temperature 51 °F 41 °F 33 °F (2003)
Degree Days  
Heating Degree Days 8    
Growing Degree Days 6 (Base 50)    
Moisture  
Dew Point 53 °F    
Average Humidity 87    
Maximum Humidity 100    
Minimum Humidity 68    
Precipitation  
Precipitation 0.00 in - - ()
Sea Level Pressure  
Sea Level Pressure 29.49 in    
Wind  
Wind Speed 5 mph ()    
Max Wind Speed 14 mph    
Max Gust Speed 25 mph    
Visibility 4.9 miles    
Events Rain , Thunderstorm    
Averages and records for this station are not official NWS values.
T = Trace of Precipitation, MM = Missing Value Source: Averaged Metar Reports

Daily Weather History Graph

Daily Weather History Graph

Search for Another Location

Airport or City:

Astronomy

Mar. 26, 2013 Rise Set
Actual Time 6:15 AM EET 6:40 PM EET
Civil Twilight 5:47 AM EET 7:07 PM EET
Nautical Twilight 5:15 AM EET 7:40 PM EET
Astronomical Twilight 4:42 AM EET 8:13 PM EET
Moon 5:56 PM EET (3/26) 5:21 AM EET (3/26)
Length of Visible Light 13h 20m
Length of Day
12h 25m
Waxing Gibbous, 99% of the Moon is Illuminated
Mar 26
Waxing Gibbous
Mar 27
Full
Apr 3
Last Quarter
Apr 10
New
Apr 18
First Quarter

Hourly Weather History & Observations

Time (EET) Temp. Dew Point Humidity Pressure Visibility Wind Dir Wind Speed Gust Speed Precip Events Conditions
5:20 AM 57.2 °F 53.6 °F 88% 29.47 in 3.7 mi WSW 9.2 mph - N/A   Mostly Cloudy
5:50 AM 57.2 °F 53.6 °F 88% 29.50 in 4.3 mi West 5.8 mph - N/A   Scattered Clouds
6:20 AM 57.2 °F 53.6 °F 88% 29.47 in 3.7 mi WSW 9.2 mph - N/A   Partly Cloudy
6:50 AM 55.4 °F 55.4 °F 100% 29.50 in 3.1 mi WNW 4.6 mph - N/A   Scattered Clouds
7:20 AM 55.4 °F 55.4 °F 100% 29.50 in 3.1 mi Calm Calm - N/A   Scattered Clouds
7:50 AM 57.2 °F 55.4 °F 94% 29.50 in 3.1 mi Calm Calm - N/A   Mostly Cloudy
8:20 AM 57.2 °F 55.4 °F 94% 29.50 in 3.1 mi Calm Calm - N/A   Mostly Cloudy
8:50 AM 59.0 °F 55.4 °F 88% 29.47 in 3.1 mi West 6.9 mph - N/A   Mostly Cloudy
9:20 AM 59.0 °F 55.4 °F 88% 29.50 in 3.1 mi Calm Calm - N/A   Mostly Cloudy
9:50 AM 59.0 °F 55.4 °F 88% 29.50 in 3.1 mi WNW 4.6 mph - N/A   Mostly Cloudy
10:20 AM 59.0 °F 55.4 °F 88% 29.50 in 3.1 mi West 4.6 mph - N/A   Mostly Cloudy
10:50 AM 60.8 °F 53.6 °F 77% 29.47 in 3.7 mi West 5.8 mph - N/A   Mostly Cloudy
11:20 AM 60.8 °F 53.6 °F 77% 29.47 in 3.7 mi WSW 9.2 mph - N/A   Mostly Cloudy
11:50 AM 59.0 °F 55.4 °F 88% 29.47 in 3.7 mi WSW 10.4 mph - N/A Thunderstorm Thunderstorm
12:20 PM 59.0 °F 55.4 °F 88% 29.47 in 3.7 mi SW 6.9 mph - N/A   Mostly Cloudy
12:50 PM 59.0 °F 55.4 °F 88% 29.47 in 4.3 mi SSW 6.9 mph - N/A   Mostly Cloudy
1:20 PM 59.0 °F 55.4 °F 88% 29.47 in 4.3 mi SW 6.9 mph - N/A   Mostly Cloudy
1:50 PM 60.8 °F 53.6 °F 77% 29.47 in 4.3 mi SW 8.1 mph - N/A   Mostly Cloudy
2:20 PM 60.8 °F 53.6 °F 77% 29.47 in 6.2 mi WSW 8.1 mph - N/A   Mostly Cloudy
2:50 PM 62.6 °F 51.8 °F 68% 29.44 in 6.2 mi SW 5.8 mph - N/A   Partly Cloudy
3:20 PM 62.6 °F 51.8 °F 68% 29.44 in 6.2 mi SSW 5.8 mph - N/A   Partly Cloudy
3:50 PM 60.8 °F 50.0 °F 68% 29.44 in 6.2 mi South 6.9 mph - N/A   Scattered Clouds
4:20 PM 60.8 °F 50.0 °F 68% 29.47 in 6.2 mi SE 6.9 mph - N/A   Mostly Cloudy
4:50 PM 59.0 °F 51.8 °F 77% 29.47 in 6.2 mi SE 6.9 mph - N/A   Mostly Cloudy
5:20 PM 59.0 °F 51.8 °F 77% 29.47 in 6.2 mi SSE 4.6 mph - N/A   Scattered Clouds
5:50 PM 59.0 °F 53.6 °F 82% 29.47 in 6.2 mi Calm Calm - N/A   Mostly Cloudy
6:20 PM 59.0 °F 53.6 °F 82% 29.47 in 6.2 mi NNE 4.6 mph - N/A   Mostly Cloudy
6:50 PM 55.4 °F 53.6 °F 94% 29.50 in 6.2 mi NE 6.9 mph - N/A   Mostly Cloudy
7:20 PM 55.4 °F 53.6 °F 94% 29.50 in 6.2 mi West 13.8 mph 25.3 mph N/A   Mostly Cloudy
7:50 PM 51.8 °F 50.0 °F 94% 29.53 in 5.6 mi West 5.8 mph - N/A Rain Rain
8:20 PM 51.8 °F 50.0 °F 94% 29.53 in 6.2 mi Calm Calm - N/A Rain Light Rain
8:50 PM 51.8 °F 51.8 °F 100% 29.50 in 6.2 mi East 6.9 mph - N/A Rain Light Rain
9:20 PM 51.8 °F 51.8 °F 100% 29.50 in 6.2 mi Variable 4.6 mph - N/A Rain Light Rain
9:50 PM 51.8 °F 50.0 °F 94% 29.53 in 6.2 mi NNE 4.6 mph - N/A   Mostly Cloudy
10:20 PM 51.8 °F 50.0 °F 94% 29.53 in 6.2 mi Calm Calm - N/A   Mostly Cloudy
10:50 PM 51.8 °F 51.8 °F 100% 29.56 in 6.2 mi Calm Calm - N/A   Mostly Cloudy
11:50 PM 51.8 °F 51.8 °F 100% 29.56 in 6.2 mi Calm Calm - N/A   Mostly Cloudy